Overview Statistics Trail Chart Weather Telemetry Raw packets
 

This is the latest recevied weather packets stored in our database for station/object W5GMO. If no packets are shown the sender has not sent any weather packets the latest 10 day(s).

<< 2 3 4 5 6 7 8 >>
Time Temp. Humidity Pressure Rain* Wind** Luminosity Snow
1788623352 27.22° C 1% 1012.5 hPa 0 mm - 228 W/m² -
1788623048 27.22° C 1% 1012.8 hPa 0 mm - 187 W/m² -
1788622742 27.22° C 1% 1012.6 hPa 0 mm - 174 W/m² -
1788622440 26.67° C 1% 1012.7 hPa 0 mm - 172 W/m² -
1788622138 26.67° C 1% 1012.8 hPa 0 mm - 197 W/m² -
1788621837 26.67° C 1% 1012.9 hPa 0 mm - 112 W/m² -
1788621533 26.67° C 1% 1013.1 hPa 0 mm - 111 W/m² -
1788621228 26.67° C 1% 1013.1 hPa 0 mm - 141 W/m² -
1788620923 26.67° C 1% 1013.1 hPa 0 mm - 140 W/m² -
1788620617 26.67° C 1% 1012.9 hPa 0 mm - 175 W/m² -
1788620314 27.22° C 1% 1013 hPa 0 mm - 186 W/m² -
1788620009 27.22° C 1% 1012.9 hPa 0 mm - 261 W/m² -
1788619708 27.22° C 1% 1012.8 hPa 0 mm - 291 W/m² -
1788619404 26.67° C 1% 1012.9 hPa 0 mm - 318 W/m² -
1788619102 26.67° C 1% 1012.9 hPa 0 mm - 291 W/m² -
1788618796 26.67° C 1% 1012.8 hPa 0 mm - 226 W/m² -
1788618495 26.11° C 1% 1012.7 hPa 0 mm - 235 W/m² -
1788618189 26.11° C 1% 1012.7 hPa 0 mm - 173 W/m² -
1788617886 26.67° C 1% 1012.5 hPa 0 mm - 199 W/m² -
1788617581 26.67° C 1% 1012.5 hPa 0 mm - 449 W/m² -
1788617297 26.67° C 1% 1012.3 hPa 0 mm - 527 W/m² -
1788616976 26.67° C 1% 1012.4 hPa 0 mm - 539 W/m² -
1788616675 26.67° C 1% 1012.2 hPa 0 mm - 552 W/m² -
1788616371 26.11° C 1% 1012.1 hPa 0 mm - 533 W/m² -
1788616071 26.67° C 1% 1012.1 hPa 0 mm - 453 W/m² -

* Rain latest hour (hover to see other rain measurements)
** Current wind speed in m/s (hover to see current wind gust speed)